• Em Portugal
  • Lista de países
  • Para 7 dias
  • Temperatura da água
  • Mapas de satélite
  • Mapa do tempo
  • Widgets de tempo
  • user-avatar
    Iniciar Sessão

    Previsão horária em Santiago del Estero

    Hoje, 17 Dezembro, Domingo

    Tempo Temperatura Precipitação Vento Pressão Humidade
    00:00 +38°C° 0 mm 6 m/s 730 mmHg 31%
    01:00 +38°C° 0 mm 6 m/s 730 mmHg 33%
    02:00 +36°C° 0 mm 6 m/s 730 mmHg 34%
    03:00 +35°C° 0 mm 6 m/s 731 mmHg 36%
    04:00 +35°C° 0 mm 6 m/s 732 mmHg 38%
    05:00 +34°C° 0 mm 5 m/s 733 mmHg 41%
    06:00 +32°C° 0,6 mm 8 m/s 735 mmHg 50%
    07:00 +31°C° 0,6 mm 10 m/s 737 mmHg 60%
    08:00 +28°C° 0,6 mm 12 m/s 740 mmHg 70%
    09:00 +27°C° 0,5 mm 11 m/s 741 mmHg 67%
    10:00 +26°C° 0,5 mm 10 m/s 743 mmHg 64%
    11:00 +23°C° 0,5 mm 9 m/s 745 mmHg 61%
    12:00 +24°C° 0 mm 9 m/s 745 mmHg 52%
    13:00 +26°C° 0 mm 8 m/s 745 mmHg 44%
    14:00 +27°C° 0 mm 7 m/s 746 mmHg 35%
    15:00 +28°C° 0 mm 7 m/s 745 mmHg 32%
    16:00 +29°C° 0 mm 6 m/s 745 mmHg 29%
    17:00 +30°C° 0 mm 5 m/s 744 mmHg 25%
    18:00 +28°C° 0 mm 4 m/s 745 mmHg 26%
    19:00 +27°C° 0 mm 3 m/s 745 mmHg 28%
    20:00 +26°C° 0 mm 2 m/s 745 mmHg 29%
    21:00 +25°C° 0 mm 2 m/s 746 mmHg 30%
    22:00 +25°C° 0 mm 3 m/s 746 mmHg 31%
    23:00 +24°C° 0 mm 3 m/s 747 mmHg 32%

    Amanhã, 18 Dezembro, Segunda-feira

    Tempo Temperatura Precipitação Vento Pressão Humidade
    00:00 +22°C° 0 mm 3 m/s 746 mmHg 35%
    01:00 +23°C° 0 mm 2 m/s 746 mmHg 37%
    02:00 +21°C° 0 mm 2 m/s 746 mmHg 40%
    03:00 +21°C° 0 mm 2 m/s 746 mmHg 41%
    04:00 +20°C° 0 mm 2 m/s 746 mmHg 42%
    05:00 +20°C° 0 mm 2 m/s 745 mmHg 44%
    06:00 +21°C° 0 mm 2 m/s 746 mmHg 44%
    07:00 +24°C° 0 mm 3 m/s 746 mmHg 44%
    08:00 +25°C° 0 mm 4 m/s 747 mmHg 44%
    09:00 +27°C° 0 mm 3 m/s 746 mmHg 41%
    10:00 +28°C° 0 mm 3 m/s 746 mmHg 39%
    11:00 +30°C° 0 mm 3 m/s 746 mmHg 36%
    12:00 +31°C° 0 mm 3 m/s 745 mmHg 34%
    13:00 +33°C° 0 mm 3 m/s 744 mmHg 32%
    14:00 +35°C° 0 mm 3 m/s 743 mmHg 30%
    15:00 +35°C° 0 mm 3 m/s 742 mmHg 32%
    16:00 +35°C° 0 mm 4 m/s 741 mmHg 33%
    17:00 +35°C° 0 mm 4 m/s 740 mmHg 34%
    18:00 +33°C° 0 mm 3 m/s 741 mmHg 38%
    19:00 +31°C° 0 mm 3 m/s 741 mmHg 42%
    20:00 +29°C° 0 mm 2 m/s 741 mmHg 47%
    21:00 +29°C° 0 mm 2 m/s 742 mmHg 48%
    22:00 +29°C° 0 mm 2 m/s 742 mmHg 49%
    23:00 +28°C° 0 mm 2 m/s 743 mmHg 50%

    Depois de amanhã, 19 Dezembro, Terça-feira

    Tempo Temperatura Precipitação Vento Pressão Humidade
    00:00 +28°C° 0 mm 1 m/s 742 mmHg 51%
    01:00 +27°C° 0 mm 1 m/s 742 mmHg 52%
    02:00 +27°C° 0 mm 1 m/s 741 mmHg 53%
    03:00 +27°C° 0,2 mm 1 m/s 741 mmHg 57%
    04:00 +26°C° 0,2 mm 1 m/s 741 mmHg 60%
    05:00 +26°C° 0,2 mm 1 m/s 741 mmHg 64%
    06:00 +26°C° 0,9 mm 1 m/s 742 mmHg 67%
    07:00 +26°C° 0,9 mm 1 m/s 742 mmHg 70%
    08:00 +26°C° 0,9 mm 1 m/s 742 mmHg 73%
    09:00 +27°C° 0,6 mm 2 m/s 742 mmHg 71%
    10:00 +28°C° 0,6 mm 2 m/s 742 mmHg 68%
    11:00 +30°C° 0,6 mm 2 m/s 742 mmHg 65%
    12:00 +31°C° 0 mm 3 m/s 741 mmHg 60%
    13:00 +34°C° 0 mm 3 m/s 740 mmHg 55%
    14:00 +35°C° 0 mm 4 m/s 740 mmHg 50%
    15:00 +35°C° 0,4 mm 4 m/s 739 mmHg 52%
    16:00 +34°C° 0,4 mm 4 m/s 739 mmHg 54%
    17:00 +34°C° 0,4 mm 4 m/s 739 mmHg 56%
    18:00 +33°C° 0,7 mm 5 m/s 739 mmHg 62%
    19:00 +30°C° 0,7 mm 5 m/s 740 mmHg 68%
    20:00 +29°C° 0,7 mm 6 m/s 740 mmHg 73%
    21:00 +28°C° 1,2 mm 5 m/s 741 mmHg 78%
    22:00 +26°C° 1,2 mm 5 m/s 741 mmHg 83%
    23:00 +25°C° 1,2 mm 5 m/s 742 mmHg 88%

    20 Dezembro, Quarta-feira

    Tempo Temperatura Precipitação Vento Pressão Humidade
    00:00 +25°C° 0,9 mm 4 m/s 741 mmHg 89%
    01:00 +23°C° 0,9 mm 4 m/s 741 mmHg 89%
    02:00 +24°C° 0,9 mm 3 m/s 741 mmHg 89%
    03:00 +24°C° 0 mm 3 m/s 741 mmHg 88%
    04:00 +22°C° 0 mm 3 m/s 741 mmHg 87%
    05:00 +22°C° 0 mm 3 m/s 741 mmHg 86%
    06:00 +23°C° 0 mm 2 m/s 741 mmHg 83%
    07:00 +24°C° 0 mm 2 m/s 741 mmHg 80%
    08:00 +25°C° 0 mm 2 m/s 741 mmHg 77%
    09:00 +27°C° 0 mm 2 m/s 741 mmHg 70%
    10:00 +30°C° 0 mm 1 m/s 740 mmHg 62%
    11:00 +32°C° 0 mm 1 m/s 740 mmHg 55%
    12:00 +33°C° 0 mm 1 m/s 739 mmHg 52%
    13:00 +35°C° 0 mm 2 m/s 738 mmHg 48%
    14:00 +36°C° 0 mm 3 m/s 737 mmHg 45%
    15:00 +37°C° 0 mm 3 m/s 737 mmHg 45%
    16:00 +37°C° 0 mm 3 m/s 736 mmHg 45%
    17:00 +37°C° 0 mm 3 m/s 736 mmHg 45%
    18:00 +35°C° 0 mm 3 m/s 736 mmHg 49%
    19:00 +34°C° 0 mm 3 m/s 736 mmHg 54%
    20:00 +32°C° 0 mm 2 m/s 737 mmHg 58%
    21:00 +31°C° 0 mm 2 m/s 737 mmHg 61%
    22:00 +30°C° 0 mm 2 m/s 737 mmHg 63%
    23:00 +30°C° 0 mm 2 m/s 738 mmHg 65%

    21 Dezembro, Quinta-feira

    Tempo Temperatura Precipitação Vento Pressão Humidade
    00:00 +29°C° 0 mm 2 m/s 737 mmHg 68%
    01:00 +28°C° 0 mm 2 m/s 737 mmHg 72%
    02:00 +28°C° 0 mm 1 m/s 736 mmHg 75%
    03:00 +27°C° 0 mm 1 m/s 736 mmHg 77%
    04:00 +27°C° 0 mm 1 m/s 736 mmHg 79%
    05:00 +27°C° 0 mm 1 m/s 736 mmHg 81%
    06:00 +28°C° 0 mm 2 m/s 737 mmHg 74%
    07:00 +30°C° 0 mm 2 m/s 737 mmHg 68%
    08:00 +32°C° 0 mm 2 m/s 738 mmHg 62%
    09:00 +34°C° 0,1 mm 3 m/s 738 mmHg 56%
    10:00 +36°C° 0,1 mm 3 m/s 737 mmHg 50%
    11:00 +37°C° 0,1 mm 3 m/s 737 mmHg 44%
    12:00 +38°C° 0 mm 3 m/s 737 mmHg 42%
    13:00 +39°C° 0 mm 3 m/s 736 mmHg 40%
    14:00 +39°C° 0 mm 2 m/s 736 mmHg 38%
    15:00 +39°C° 0 mm 3 m/s 735 mmHg 40%
    16:00 +38°C° 0 mm 3 m/s 735 mmHg 41%
    17:00 +38°C° 0 mm 4 m/s 735 mmHg 43%
    18:00 +36°C° 0 mm 3 m/s 735 mmHg 47%
    19:00 +35°C° 0 mm 3 m/s 736 mmHg 50%
    20:00 +33°C° 0 mm 3 m/s 736 mmHg 54%
    21:00 +33°C° 0 mm 3 m/s 736 mmHg 55%
    22:00 +31°C° 0 mm 2 m/s 736 mmHg 57%
    23:00 +31°C° 0 mm 2 m/s 737 mmHg 58%

    22 Dezembro, Sexta-feira

    Tempo Temperatura Precipitação Vento Pressão Humidade
    00:00 +30°C° 0 mm 2 m/s 736 mmHg 60%
    01:00 +30°C° 0 mm 2 m/s 736 mmHg 62%
    02:00 +30°C° 0 mm 2 m/s 735 mmHg 64%
    03:00 +29°C° 0 mm 2 m/s 735 mmHg 67%
    04:00 +29°C° 0 mm 2 m/s 735 mmHg 71%
    05:00 +28°C° 0 mm 2 m/s 735 mmHg 74%
    06:00 +30°C° 0 mm 2 m/s 735 mmHg 68%
    07:00 +31°C° 0 mm 3 m/s 736 mmHg 63%
    08:00 +34°C° 0 mm 3 m/s 736 mmHg 58%
    09:00 +36°C° 0 mm 3 m/s 736 mmHg 52%
    10:00 +37°C° 0 mm 4 m/s 736 mmHg 45%
    11:00 +40°C° 0 mm 4 m/s 735 mmHg 39%
    12:00 +40°C° 0 mm 4 m/s 735 mmHg 39%
    13:00 +40°C° 0 mm 3 m/s 734 mmHg 38%
    14:00 +40°C° 0 mm 3 m/s 734 mmHg 37%
    15:00 +39°C° 0 mm 3 m/s 734 mmHg 38%
    16:00 +39°C° 0 mm 3 m/s 733 mmHg 39%
    17:00 +38°C° 0 mm 3 m/s 733 mmHg 41%
    18:00 +37°C° 0 mm 3 m/s 733 mmHg 43%
    19:00 +36°C° 0 mm 3 m/s 734 mmHg 46%
    20:00 +35°C° 0 mm 2 m/s 734 mmHg 49%
    21:00 +32°C° 1,2 mm 2 m/s 735 mmHg 56%
    22:00 +31°C° 1,2 mm 2 m/s 735 mmHg 64%
    23:00 +30°C° 1,2 mm 2 m/s 735 mmHg 71%
    Mostrar mais

    XHprof extension not loaded